星链-36386(STARLINK-36386)

导读

STARLINK-36386(NORAD编号68612)是SpaceX星链(Starlink)低轨互联网星座中的一颗卫星,归属SpaceX的Starlink项目。 作为星链星座组成单元,它运行于近地轨道,是SpaceX全球卫星互联网组网的一部分,承担为全球偏远地区、海洋与航空等场景提供低时延宽带互联网接入的功能,助力填补全球网络覆盖空白。2026年SpaceX启动将星链卫星轨道高度从550公里降至480公里的安全优化计划,该卫星所属星座批次大概率纳入此次轨道调整,以降低太空碰撞风险,减少空间碎片隐患。

Basic Information
目录编号:
68612
目录名称:
STARLINK-36386
国际标识:
2026-073L
轨道中心:
EARTH
卫星名称:
星链-36386
卫星全名:
星链-36386(STARLINK-36386)
卫星状态:
在轨 (已飞行161 天)
发射日期:
2026-04-05 UTC
国别 :
美国 (US)
星等 :
--
This satellite is enrolled in the Space Conjunction Data Service (SCDS) and the current flight risk assessment level is: No High Risk
Orbit Information
数据来源 国际轨道数据 AOE轨道数据
星历时间 2026-09-13T08:45:03+0800
10小时前
查看轨道信息
2026-09-09T22:00:00+0800
3天前
查看轨道信息
半长轴 6843.654km 6843.711km
偏心率 0.0001206 0.0003188
轨道倾角 97.287° 97.283°
近地点辐角 88.675° 53.777°
升交点赤经 94.119° 90.714°
平近点角 271.463° 4.730°
近地点 464.691km 463.392km
远地点 466.343km 467.756km
周期 93.906分钟 93.907分钟
每日圈数 15.334541 15.334348
Detailed Information
固有亮度:
5
最大亮度:
2.5
卫星平台:
Starlink V1.0
覆盖范围:
全球
运营商:
太空探索技术公司
运营商所在国:
美国
制造商(研发单位):
太空探索技术公司
制造商所在国:
美国
使用方式:
暂无
Satellite Introduction
Starlink 计划是 SpaceX 推出的全球卫星互联网项目,通过发射低轨道卫星,为全球尤其是偏远地区提供高速、低延迟的互联网服务。自 2019 年起,Starlink 已部署数千颗卫星,旨在缩小全球数字鸿沟,推动互联网普及。该项目还为军事、航空等行业提供通信支持,带来广泛经济效益。
2D Orbit Map
3D Orbit Map
Orbit Altitude Analysis Chart
Orbit Inclination Analysis Chart
Orbit Comprehensive Analysis Chart
View Comprehensive Chart
Conjunction Data List
Event ID Objects TCA Miss Dist (km) Collision Risk Probability Collision Risk Index (CRI) Action
CDM_260913-215305-249706-861221
2026-09-13T
21:53:26+0000
2.393 km
极远距离
1.903076E-6 低风险 0.41
CDM_260909-082804-809706-861221
2026-09-09T
08:28:59+0000
2.153 km
极远距离
1.859676E-6 低风险 0.4
CDM_260911-082703-557306-861221
2026-09-11T
08:27:19+0000
2.338 km
极远距离
1.635139E-6 低风险 0.39
CDM_260914-202604-765606-861221
2026-09-14T
20:26:46+0000
2.665 km
极远距离
1.551512E-6 低风险 0.39
CDM_260915-061205-083406-861221
2026-09-15T
06:12:17+0000
2.494 km
极远距离
1.318489E-6 低风险 0.37
Miss Distance Evolution Trend with All Objects
Collision Probability Evolution Trend with All Objects